User: anonymous   Login
Location: Oshawa
(43.9000°N, 78.8670°W)
Time: 19:11:32
(UTC-04:00)
Language:

Envisat - Orbit

View from above orbital plane
View from above orbital plane
View from above satellite
View from above satellite

Ground track
Ground track

The orbit data is extracted from the following two-line orbital elements,

1 27386U 02009A   15247.21026689  .00000034  00000-0  25321-4 0  9994
2 27386  98.3273 305.2451 0001187  78.7251 281.4071 14.37830733707384
Epoch (UTC): 04 September 2015 05:02:47
Eccentricity: 0.0001187
inclination: 98.3273°
perigee height: 765 km
apogee height: 766 km
right ascension of ascending node: 305.2451°
argument of perigee: 78.7251°
revolutions per day: 14.37830733
mean anomaly at epoch: 281.4071°
orbit number at epoch: 70738

The dashed part of the orbit path shows where the satellite is in the earth's shadow,  

DLR